SERT 2

Last updated on Fri Jul 10 2026 00:02:12 GMT+0000 (Coordinated Universal Time)

1 04327U 70009A 26190.29099359 -.00000021 00000+0 27779-4 0 9995 2 04327 99.2841 126.8180 0004304 205.2504 308.8579 13.58740705796402
UTC large
Height (km)
Speed (km/s)
/
Latitude / Longitude
Inclination (degrees)
Orbital Period (minutes)
Azimuth
Elevation
Range (km)
Doppler Factor

Next 0 passes for location: London (51.5072 / 0.1276)

No passes found over London.
SERT 2